User: anonymous   Login
Location: Unspecified
(0.0000°N, 0.0000°E)
Time: 09:21:37
(UTC+00:00)
Language:

CUBEBUG 2 - Orbit

View from above orbital plane
View from above orbital plane
View from above satellite
View from above satellite

Ground track
Ground track

The orbit data is extracted from the following two-line orbital elements,

1 39440U 13066AA  17086.65905777 +.00000361 +00000-0 +57748-4 0  9999
2 39440 097.6381 122.6379 0080365 203.8577 155.8901 14.75392180180075
Epoch (UTC): 27 March 2017 15:49:02
Eccentricity: 0.0080365
inclination: 97.6381°
perigee height: 587 km
apogee height: 700 km
right ascension of ascending node: 122.6379°
argument of perigee: 203.8577°
revolutions per day: 14.75392180
mean anomaly at epoch: 155.8901°
orbit number at epoch: 18007

The dashed part of the orbit path shows where the satellite is in the earth's shadow,  

DLR